OMDBOTBD

Guest
Details From OMDB - DUBAI INTL
To OTBD - DOHA INTL
Flight Number -
Tags decoded
Created
Modified
Stats Distance 206 nm / 382 km
Max Altitude 0 ft / 0 m
Waypoints 3
Social Downloads 0
Likes 0
Share VATSIM

Download

Looking for another format? Having issues loading an existing format? Contact us
Advertisement - Login to hide

Notes

Requested: OMDB DUMPI OTBD

Route

OMDB DUMPI OTBD

ID Type Via Altitude Latitude Longitude Leg Dist Tot Dist Heading (true) Name
O OMDB APT - 0 ft / 0 m 25.25491˚ 55.36426˚ - 0 nm - DUBAI INTL
DUMPI FIX - 0 ft / 0 m 25.29028˚ 53.41667˚ 105 nm 105 nm 272° / 271° -
O OTBD APT - 0 ft / 0 m 25.26106˚ 51.56500˚ 100 nm 206 nm 269° / 269° DOHA INTL

Altitude Profile

Advertisement - Login to hide

Weather


0- 5 10 15 20 25 30 35+ Temperature / ° C

Clouds and Precipitation
Forecast for 2018-06-23 00:00 UTC. Updated 3 hours ago

Ground ~20,000 ft ~40,000 ft Winds

OMDB

Details ICAO OMDB (DXB)
Name DUBAI INTL
Region United Arab Emirates
Timezone Asia/Dubai (UTC+4.0)
Stats Elevation 62 ft / 19 m (AMSL)
Location 25.254912° 55.364260°
Runways 2
Magnetic Variation 2.072° E

METAR

OMDB 230000Z 16008KT CAVOK 30/24 Q0999 NOSIG

Decode

TAF

TAF OMDB 222253Z 2300/2406 19007KT 8000 NSC PROB30 2301/2304 4000 HZ BECMG 2306/2308 28013KT BECMG 2317/2319 22005KT PROB30 2401/2404 4000 HZ

Decode

Departure Runways

ID Width Length Bearing (true) Bearing (mag) Surface Threshold Offset Overrun Length
12L 197 ft / 60 m 13,124 ft / 4,000 m 121.49° 119.42° Asphalt 1,312 ft / 400 m 395 ft / 120 m
12R 151 ft / 46 m 13,139 ft / 4,005 m 121.48° 119.41° Asphalt 394 ft / 120 m 197 ft / 60 m
30L 151 ft / 46 m 13,139 ft / 4,005 m 301.50° 299.43° Asphalt 2,953 ft / 900 m 197 ft / 60 m
30R 197 ft / 60 m 13,124 ft / 4,000 m 301.51° 299.44° Asphalt 0 ft / 0 m 395 ft / 120 m

OTBD

Details ICAO OTBD (DOH)
Name DOHA INTL
Region Qatar
Timezone Asia/Qatar (UTC+3.0)
Stats Elevation 35 ft / 11 m (AMSL)
Location 25.261056° 51.564999°
Runways 1
Magnetic Variation 2.505° E

METAR

OTBD 230030Z AUTO 28006KT 250V310 CAVOK 33/15 Q1000 NOSIG

Decode

TAF

TAF OTBD 222303Z 2300/2406 28010KT 9000 NSC BECMG 2305/2307 34012G24KT 7000 NSC PROB40 TEMPO 2307/2314 3500 BLDU BECMG 2316/2318 28006KT

Decode

Destination Runways

ID Width Length Bearing (true) Bearing (mag) Surface Threshold Offset Overrun Length
16 151 ft / 46 m 15,065 ft / 4,592 m 158.20° 155.69° Asphalt 2,460 ft / 750 m 98 ft / 30 m
34 151 ft / 46 m 15,065 ft / 4,592 m 338.21° 335.70° Asphalt 0 ft / 0 m 460 ft / 140 m

Approach Navaids

Runway Type Ident Frequency Range Bearing (true) Bearing (mag) Slope Elevation
34 Localiser IBD 109.50 MHz 18 nm / 33 km 338.32° 335.82° - 38 ft / 12 m (AMSL)
34 Glidescope IBD 109.50 MHz 10 nm / 19 km 338.21° 335.70° 3.00° 35 ft / 11 m (AMSL)
34 DME IBD 109.50 MHz 18 nm / 33 km - - - 35 ft / 11 m (AMSL)

Popular Alternatives